Regional Weather Roundup
Issued by NWS

Home | Current Version | Previous Version | Graphics & Text | Print | Product List | Glossary On
Versions: 1 2 3 4 5 6 7 8 9 10 11 12 13 14 15 16 17 18 19 20 21 22 23 24 25 26 27 28 29 30 31 32 33 34 35 36 37 38 39 40 41 42 43 44 45 46 47 48 49 50
000
ASUS43 KFSD 271810
RWRSD

WEATHER ROUNDUP FOR SOUTH DAKOTA
NATIONAL WEATHER SERVICE SIOUX FALLS SD
100 PM CDT WED AUG 27 2014

NOTE: "FAIR" INDICATES FEW OR NO CLOUDS BELOW 12,000 FEET WITH NO
SIGNIFICANT WEATHER AND/OR OBSTRUCTIONS TO VISIBILITY.


SDZ001>005-009-010-012>017-271900-
NORTHWEST AND NORTH CENTRAL SOUTH DAKOTA

CITY           SKY/WX    TMP DP  RH WIND       PRES   REMARKS
BUFFALO          N/A     76  57  51 S14       30.06F
FAITH            N/A     68  62  81 E13       30.12F
MOBRIDGE       CLOUDY    71  61  70 SE15      30.10F
$$

SDZ012>016-024>037-041>051-057-063-072>074-271900-
SOUTHWEST AND SOUTH CENTRAL SOUTH DAKOTA

CITY           SKY/WX    TMP DP  RH WIND       PRES   REMARKS
RAPID CTY ARPT MOSUNNY   71  60  68 NE5       30.14S
PIERRE         CLOUDY    66  63  90 E12       30.10F
CUSTER         CLOUDY    68  57  68 E12       30.22S
ELLSWORTH AFB  PTSUNNY   70  61  73 SE8       30.14S
PHILIP         CLOUDY    66  62  87 E9        30.11S
PINE RIDGE     MOSUNNY   77  63  61 MISG      30.10F
WINNER         CLOUDY    73  66  78 SE15      30.11F
$$

SDZ004>011-016>023-039-040-271900-
NORTHEAST SOUTH DAKOTA

CITY           SKY/WX    TMP DP  RH WIND       PRES   REMARKS
ABERDEEN       MOSUNNY   69  59  70 SE10      30.15F
WATERTOWN      CLOUDY    67  58  72 S10       30.18F
SISSETON         N/A     71  60  68 S10       30.17F
$$

SDZ017-020-022-023-036>040-048>070-271900-
SOUTHEAST SOUTH DAKOTA

CITY           SKY/WX    TMP DP  RH WIND       PRES   REMARKS
SIOUX FALLS    PTSUNNY   69  60  73 SE12      30.16F
HURON          PTSUNNY   73  62  68 SE9       30.12F
CHAMBERLAIN    MOSUNNY   76  66  71 SE13G18   30.10F
MITCHELL       MOSUNNY   76  66  71 SE10      30.12F
YANKTON        PTSUNNY   66  63  88 E10       30.13S
$$

ABBREVIATIONS USED IN REMARKS
   TC - TEMPERATURE IN CELSIUS
  WCI - WIND CHILL INDEX
   HX - HEAT INDEX
  VSB - VISIBILITY



USA.gov is the U.S. government's official web portal to all federal, state and local government web resources and services.